Main page
METAR-TAF:

METAR-TAF

Airports :

Sarh Airport

Sarh, Chad

latitude: 09-09N, longitude: 018-23E, elevation: 365 m

Current weather observation

The report was made 3 hours and 4 minutes ago, at 03:00 UTC
Calm wind
Temperature 23°C
Humidity 100%
Pressure 1010 hPa
Visibility 10 km or more
Few clouds at a height of 5000 ft, Cumulonimbus.

METAR: FTTA 130300Z 00000KT 9999 FEW050CB 23/23 Q1010

Time: 07:04 (06:04 UTC)


TAF: missing

Weather observations and forecasts of more than 4000 airports (METAR and TAF reports).

The available stations are represented by yellow and red dots on the map.

Hover mouse over dot to see the name of the station.

Then click to see weather observations and forecasts.

To change the map : click on the green buttons with a black cross to zoom in, on the green button with a dash to zoom out, or on the green arrows for adjacent maps.


METAR-TAF: